Terminal Aerodrome Forecast
Issued by NWS

Home | Current Version | Previous Version | Text Only | Print | Product List | Glossary Off
Versions: 1 2 3 4 5 6 7 8 9 10 11 12 13 14 15 16 17 18 19 20 21 22

000
FTUS43 KBIS 261000 AAA
TAFMOT
TAF AMD
KMOT 261012Z 2610/2706 25015KT P6SM SKC
     FM261400 25018G25KT P6SM SKC
     FM261600 27023G33KT P6SM VCSH OVC050
     FM270200 30015KT P6SM BKN050=

USA.gov is the U.S. government's official web portal to all federal, state and local government web resources and services.